Volver al catálogo

SCOUT G-1 DEB

LostPO
NORAD 35529·DEBRIS·🇺🇸 United States

Lanzado Aug 25, 1988 desde Vandenberg Space Force Base

Loading…

Próximos Pases (próximas 24 horas)

TLE

ObsoletoSource: Space-Track

Época: Dec 28, 2012, 07:58 UTC

1 35529U 88074S   12363.33263720  .00000034  00000-0  36313-4 0  9999
2 35529 090.0190 028.8090 0069536 174.7585 196.5019 13.53455142382342

Sigue SCOUT G-1 DEB en tiempo real con AllMySat

Download on the App Store